FW6114 Weather Reports


time (UTC)temp
C
wind
direction
speed
KPH
gust
KPH
rain 1hr
cm
rain 24hr
cm
rain mn
cm
humidity
%
barometer
mb
20260503054503 8 305 0.0 3.2 0.00 0.91 0.03 88 1013.0
20260503053044 8 322 0.0 4.8 0.00 0.91 0.03 89 1013.2
20260503051530 8 319 0.0 0.0 0.00 0.91 0.03 89 1013.0
20260503050024 8 306 0.0 0.0 0.00 0.91 0.03 90 1012.8
20260503044502 8 324 0.0 0.0 0.00 0.91 0.03 89 1012.9
20260503043037 8 324 0.0 0.0 0.00 0.91 0.03 89 1012.8
20260503041514 8 329 0.0 6.4 0.00 0.91 0.03 90 1012.9
20260503040048 8 326 0.0 0.0 0.00 0.91 0.03 88 1013.1
20260503034520 8 326 0.0 1.6 0.00 0.91 0.03 88 1013.4
20260503033102 8 336 0.0 1.6 0.00 0.91 0.03 89 1013.6
20260503031537 8 325 0.0 6.4 0.00 0.91 0.03 88 1013.5
20260503030013 8 315 0.0 0.0 0.00 0.91 0.03 89 1013.4
20260503024558 8 302 0.0 9.7 0.00 0.91 0.03 89 1013.5
20260503023025 8 325 0.0 4.8 0.00 0.91 0.03 90 1013.5
20260503021502 8 323 0.0 0.0 0.00 0.91 0.03 89 1013.6
20260503020044 9 323 0.0 0.0 0.00 0.91 0.03 89 1013.6
20260503014549 9 331 0.0 0.0 0.03 0.91 0.03 90 1013.8
20260503013034 9 317 0.0 0.0 0.03 0.91 0.03 90 1013.9
20260503011506 8 315 0.0 0.0 0.03 0.91 0.03 91 1014.1
20260503010048 8 305 0.0 0.0 0.03 0.91 0.03 90 1014.3
20260503004529 8 305 0.0 0.0 0.00 0.89 0.00 91 1014.4
20260503003021 8 332 0.0 0.0 0.00 0.89 0.00 91 1014.7
20260503001512 8 331 0.0 0.0 0.00 0.89 0.00 91 1014.8
20260503000052 8 330 0.0 0.0 0.00 0.89 0.00 90 1015.0
20260502234545 8 333 0.0 0.0 0.00 0.89 0.00 91 1015.1
20260502233036 8 17 0.0 0.0 0.00 0.89 0.00 91 1015.2
20260502231530 8 17 0.0 0.0 0.00 0.89 0.00 91 1015.3
20260502230027 8 17 0.0 0.0 0.00 0.89 0.00 92 1015.5
20260502224618 7 11 0.0 0.0 0.00 0.89 0.00 92 1015.6
20260502223040 7 11 0.0 0.0 0.00 0.89 0.00 89 1015.6
20260502221508 -17 11 0.0 0.0 0.00 0.89 0.00 1015.5
20260502220048 8 40 0.0 0.0 0.03 0.89 0.89 89 1015.7
20260502214523 8 270 0.0 0.0 0.03 0.89 0.89 90 1015.8
20260502213021 8 265 0.0 0.0 0.05 0.89 0.89 90 1015.7
20260502211627 8 265 0.0 0.0 0.23 0.89 0.89 89 1015.7
20260502210038 7 265 0.0 0.0 0.51 0.89 0.89 88 1015.9
20260502204522 8 265 0.0 0.0 0.51 0.89 0.89 87 1015.6
20260502203104 7 76 0.0 16.1 0.48 0.89 0.86 86 1015.6
20260502201536 7 314 1.6 25.7 0.30 0.71 0.69 82 1016.1
20260502200010 10 315 0.0 0.0 0.00 0.41 0.38 89 1014.9
20260502194601 10 321 0.0 0.0 0.03 0.41 0.38 89 1014.0
20260502193043 9 321 0.0 0.0 0.25 0.41 0.38 88 1014.0
20260502191538 9 321 0.0 0.0 0.30 0.41 0.38 89 1013.8
20260502190040 9 339 0.0 0.0 0.36 0.53 0.38 89 1013.8
20260502184509 9 294 0.0 0.0 0.36 0.51 0.36 87 1014.1
20260502183057 9 51 0.0 0.0 0.13 0.28 0.13 84 1014.8
20260502181531 10 65 0.0 22.5 0.08 0.23 0.08 76 1014.2
20260502163102 14 288 0.0 9.7 0.00 0.36 0.00 68 1014.3
20260502161531 15 228 4.8 19.3 0.00 0.36 0.00 68 1014.5
20260502151539 14 290 4.8 16.1 0.00 0.43 0.00 68 1015.0
20260502123013 13 302 4.8 24.1 0.00 1.45 0.00 75 1017.1
20260502121546 14 264 4.8 16.1 0.00 1.45 0.00 71 1017.3
20260502114538 14 274 3.2 19.3 0.00 1.63 0.00 71 1017.2
20260502113032 14 230 8.0 22.5 0.00 1.63 0.00 73 1017.4
20260502111523 13 304 4.8 19.3 0.00 1.63 0.00 73 1017.4
20260502110016 13 238 8.0 27.4 0.00 1.63 0.00 73 1017.4
20260502104520 13 261 4.8 20.9 0.00 1.63 0.00 75 1017.5
20260502103053 13 279 3.2 20.9 0.00 1.63 0.00 75 1017.6
20260502101543 13 291 0.0 14.5 0.00 1.63 0.00 77 1017.7
20260502100106 12 293 1.6 11.3 0.00 1.63 0.00 76 1018.0
20260502070051 10 305 0.0 11.3 0.00 1.63 0.00 84 1018.8
20260502064505 10 299 1.6 12.9 0.00 1.63 0.00 84 1018.9